TimeEST,TemperatureF,Dew PointF,Humidity,Sea Level PressureIn,VisibilityMPH,Wind Direction,Wind SpeedMPH,Gust SpeedMPH,PrecipitationIn,Events,Conditions,WindDirDegrees,DateUTC
12:53 AM,24.1,21.0,88,30.40,7.0,NW,4.6,-,N/A,,Overcast,310,2013-12-07 05:53:00
1:53 AM,24.1,21.9,91,30.40,5.0,NW,3.5,-,N/A,,Overcast,320,2013-12-07 06:53:00
2:53 AM,24.1,21.9,91,30.43,6.0,NNW,6.9,-,N/A,,Overcast,330,2013-12-07 07:53:00
3:53 AM,24.1,18.0,77,30.46,9.0,NNW,10.4,-,N/A,,Overcast,340,2013-12-07 08:53:00
4:53 AM,23.0,15.1,72,30.48,10.0,North,10.4,-,N/A,,Overcast,350,2013-12-07 09:53:00
5:53 AM,21.0,12.9,71,30.52,10.0,NNW,11.5,-,N/A,,Overcast,340,2013-12-07 10:53:00
6:50 AM,19.4,10.4,68,30.49,10.0,North,8.1,-,N/A,,Scattered Clouds,350,2013-12-07 11:50:00
6:53 AM,19.0,10.9,71,30.54,10.0,North,8.1,-,N/A,,Scattered Clouds,350,2013-12-07 11:53:00
7:53 AM,15.1,10.0,80,30.56,9.0,North,3.5,-,N/A,,Clear,360,2013-12-07 12:53:00
8:53 AM,14.0,10.9,88,30.58,8.0,Calm,Calm,-,N/A,,Scattered Clouds,0,2013-12-07 13:53:00
9:04 AM,15.8,12.2,86,30.53,7.0,Calm,Calm,-,N/A,,Mostly Cloudy,0,2013-12-07 14:04:00
9:53 AM,19.9,12.0,71,30.60,10.0,North,3.5,-,N/A,,Mostly Cloudy,10,2013-12-07 14:53:00
10:53 AM,21.9,12.0,66,30.61,10.0,North,5.8,-,N/A,,Overcast,10,2013-12-07 15:53:00
11:53 AM,21.9,12.0,66,30.61,10.0,NNE,5.8,-,N/A,,Overcast,20,2013-12-07 16:53:00
12:01 PM,21.2,12.2,68,30.56,10.0,NNE,6.9,-,N/A,,Overcast,20,2013-12-07 17:01:00
12:53 PM,23.0,12.9,65,30.60,10.0,North,5.8,-,N/A,,Overcast,350,2013-12-07 17:53:00
1:53 PM,23.0,14.0,68,30.59,10.0,North,9.2,-,N/A,,Overcast,350,2013-12-07 18:53:00
2:53 PM,23.0,14.0,68,30.58,9.0,NNW,4.6,-,N/A,,Overcast,330,2013-12-07 19:53:00
3:53 PM,21.9,12.9,68,30.58,10.0,North,6.9,-,N/A,,Scattered Clouds,350,2013-12-07 20:53:00
4:04 PM,21.2,12.2,68,30.53,10.0,NNW,5.8,-,N/A,,Mostly Cloudy,340,2013-12-07 21:04:00
4:37 PM,21.2,12.2,68,30.54,10.0,Calm,Calm,-,N/A,,Scattered Clouds,0,2013-12-07 21:37:00
4:53 PM,19.9,12.0,71,30.61,10.0,Calm,Calm,-,N/A,,Clear,0,2013-12-07 21:53:00
5:53 PM,16.0,12.0,84,30.62,10.0,Calm,Calm,-,N/A,,Mostly Cloudy,0,2013-12-07 22:53:00
6:53 PM,15.1,12.0,88,30.62,8.0,Calm,Calm,-,N/A,,Clear,0,2013-12-07 23:53:00
7:53 PM,15.1,12.0,88,30.64,8.0,South,3.5,-,N/A,,Clear,180,2013-12-08 00:53:00
8:53 PM,15.1,12.0,88,30.64,7.0,Calm,Calm,-,N/A,,Clear,0,2013-12-08 01:53:00
9:53 PM,12.9,10.9,92,30.63,5.0,Calm,Calm,-,N/A,,Clear,0,2013-12-08 02:53:00
10:53 PM,12.9,10.0,88,30.63,5.0,Calm,Calm,-,N/A,,Clear,0,2013-12-08 03:53:00
11:53 PM,8.1,6.1,92,30.62,5.0,East,3.5,-,N/A,,Clear,80,2013-12-08 04:53:00